User: anonymous   Login
Location: Unspecified
(0.0000°N, 0.0000°E)
Time: 03:47:51
(UTC+00:00)
Language:

GSAT 7 - Orbit

View from above orbital plane
View from above orbital plane
View from above satellite
View from above satellite

Ground track
Ground track

The orbit data is extracted from the following two-line orbital elements,

1 39234U 13044B   14295.62941932 -.00000080  00000-0  00000+0 0  3587
2 39234 000.0613 075.9021 0009267 185.0519 070.6374 01.00272652  4231
Epoch (UTC): 22 October 2014 15:06:21
Eccentricity: 0.0009267
inclination: 0.0613°
perigee height: 35747 km
apogee height: 35825 km
right ascension of ascending node: 75.9021°
argument of perigee: 185.0519°
revolutions per day: 1.00272652
mean anomaly at epoch: 70.6374°
orbit number at epoch: 423

The dashed part of the orbit path shows where the satellite is in the earth's shadow,  

DLR